Rock Springs, WY

3:03 AM MST on February 11, 2016 (GMT -0700)
Rock Springs-Sweetwater

Weather History for KRKS - March, 2013

Change the Weather History Date:

Monday, March 4, 2013

  Actual Average Record
Temperature  
Mean Temperature 26 °F 30 °F  
Max Temperature 33 °F 39 °F 55 °F (1986)
Min Temperature 18 °F 20 °F -7 °F (1989)
Degree Days  
Heating Degree Days 39 35  
Month to date heating degree days 123 144  
Since 1 July heating degree days 5604 5996  
Cooling Degree Days 0 0  
Month to date cooling degree days 0 0  
Year to date cooling degree days 0 0  
Moisture  
Dew Point 9 °F    
Average Humidity 52    
Maximum Humidity 75    
Minimum Humidity 28    
Precipitation  
Precipitation 0.00 in 0.02 in 0.17 in (1984)
Month to date precipitation T 0.07  
Year to date precipitation T 1.00  
Sea Level Pressure  
Sea Level Pressure 30.05 in    
Wind  
Wind Speed 15 mph (WNW)    
Max Wind Speed 25 mph    
Max Gust Speed 33 mph    
Visibility 10 miles    
Events      
T = Trace of Precipitation, MM = Missing Value Source: NWS Daily Summary

Daily Weather History Graph

Daily Weather History Graph

Search for Another Location

Airport or City:

Trip Planner

Search our weather history database for the weather conditions in past years. The results will help you decide how hot, cold, wet, or windy it might be!

Date:

Astronomy

Mar. 04, 2013 Rise Set
Actual Time 6:45 AM MST 6:10 PM MST
Civil Twilight 6:17 AM MST 6:38 PM MST
Nautical Twilight 5:45 AM MST 7:10 PM MST
Astronomical Twilight 5:13 AM MST 7:42 PM MST
Moon 1:01 AM MST (3/4) 10:52 AM MST (3/4)
Length of Visible Light 12h 20m
Length of Day
11h 25m
Waning Gibbous, 51% of the Moon is Illuminated
Mar 4
Waning Gibbous
Mar 4
Last Quarter
Mar 11
New
Mar 19
First Quarter
Mar 27
Full

Hourly Weather History & Observations

Time (MST) Temp. Windchill Dew Point Humidity Pressure Visibility Wind Dir Wind Speed Gust Speed Precip Events Conditions
12:54 AM 32.0 °F 19.2 °F 25.0 °F 75% 29.79 in 10.0 mi West 23.0 mph 29.9 mph N/A   Overcast
1:54 AM 32.0 °F 18.6 °F 23.0 °F 69% 29.80 in 10.0 mi WNW 25.3 mph 32.2 mph N/A   Overcast
2:54 AM 30.9 °F 19.4 °F 19.9 °F 64% 29.80 in 10.0 mi West 17.3 mph - N/A   Overcast
3:54 AM 27.0 °F 13.9 °F 14.0 °F 58% 29.82 in 10.0 mi WNW 18.4 mph - N/A   Mostly Cloudy
4:54 AM 26.1 °F 12.3 °F 12.0 °F 55% 29.86 in 10.0 mi WNW 19.6 mph - N/A   Mostly Cloudy
5:54 AM 25.0 °F 14.2 °F 12.9 °F 60% 29.91 in 10.0 mi NNW 11.5 mph - N/A   Overcast
6:54 AM 23.0 °F 11.1 °F 7.0 °F 50% 29.95 in 10.0 mi NW 12.7 mph - N/A   Overcast
7:54 AM 23.0 °F 13.1 °F 7.0 °F 50% 29.98 in 10.0 mi WNW 9.2 mph - N/A   Overcast
8:54 AM 26.1 °F 12.7 °F 5.0 °F 41% 29.99 in 10.0 mi WNW 18.4 mph 25.3 mph N/A   Partly Cloudy
9:54 AM 26.1 °F 14.0 °F 7.0 °F 44% 30.03 in 10.0 mi NW 15.0 mph 25.3 mph N/A   Mostly Cloudy
10:54 AM 28.0 °F 14.3 °F 6.1 °F 39% 30.04 in 10.0 mi WNW 21.9 mph 26.5 mph N/A   Partly Cloudy
11:54 AM 28.9 °F 16.1 °F 1.9 °F 32% 30.05 in 10.0 mi NW 19.6 mph 26.5 mph N/A   Mostly Cloudy
12:54 PM 30.0 °F 17.9 °F 1.0 °F 29% 30.06 in 10.0 mi NW 18.4 mph 31.1 mph N/A   Partly Cloudy
1:54 PM 30.0 °F 17.9 °F 1.9 °F 30% 30.08 in 10.0 mi WNW 18.4 mph 26.5 mph N/A   Clear
2:54 PM 30.9 °F 20.7 °F 1.9 °F 29% 30.09 in 10.0 mi WNW 13.8 mph 28.8 mph N/A   Partly Cloudy
3:54 PM 30.9 °F 21.7 °F 3.9 °F 32% 30.15 in 10.0 mi West 11.5 mph 19.6 mph N/A   Scattered Clouds
4:54 PM 30.0 °F 18.7 °F 7.0 °F 38% 30.17 in 10.0 mi West 16.1 mph 24.2 mph N/A   Scattered Clouds
5:54 PM 27.0 °F 15.2 °F 7.0 °F 43% 30.21 in 10.0 mi West 15.0 mph - N/A   Clear
6:54 PM 25.0 °F 13.1 °F 7.0 °F 46% 30.26 in 10.0 mi West 13.8 mph - N/A   Clear
7:54 PM 23.0 °F 13.1 °F 7.0 °F 50% 30.29 in 10.0 mi West 9.2 mph - N/A   Clear
8:54 PM 21.0 °F 11.4 °F 6.1 °F 53% 30.29 in 10.0 mi WNW 8.1 mph - N/A   Clear
9:54 PM 19.0 °F 10.0 °F 7.0 °F 59% 30.32 in 10.0 mi South 6.9 mph - N/A   Clear
10:54 PM 18.0 °F 9.8 °F 7.0 °F 62% 30.32 in 10.0 mi South 5.8 mph - N/A   Clear